STARLINK-2750 (48691 NORAD) Tracking and Keplerian Element Data

This shows tracking and keplerian element data for the satellite.

Feedback or suggestion? Click here.




ElementValue
Catalog48691
NameSTARLINK-2750
Epoch Orbit173
Epoch Day170.58334491
Epoch Year2021
RAAN306.24
Inclination53.0478
Eccentricity0.0001521
Argument of Perigee40.473
Mean Anonmoly94.0553
Mean Motion15.73279811
Decay Rate-0.00111132
L11 48691U 21044BF 21170.58334491 -.00111132 00000-0 -79499-3 0 9999
L22 48691 53.0478 306.2400 0001521 40.4730 94.0553 15.73279811 1730

Live tracking and technical data element details for STARLINK-2750 (NORAD 48691). STARLINK-2750 can be tracked NOW for your location showing map with azimuth and elevation plus other details from your city location.

Track the satellite on the map from your city or location and see movement details for azimuth, elevation, latitude, longitude, range, height, and movement on the map or in text.







IsCatalogInMostPopularTable: catalog: 48691, numindb: 3
Update: records affected: 1



GetName: 48691 STARLINK-2750

Hit Count: updated at: Mon, 21 Jun 2021 04:03:25 GMT